Change the Weather History Date:

Tuesday, October 11, 2011

  Actual Average Record
Temperature  
Mean Temperature 72 °F -  
Max Temperature 89 °F 91 °F 104 °F (1991)
Min Temperature 56 °F 55 °F 40 °F (1920)
Cooling Degree Days 8    
Growing Degree Days 22 (Base 50)    
Moisture  
Dew Point 35 °F    
Average Humidity 26    
Maximum Humidity 47    
Minimum Humidity 12    
Precipitation  
Precipitation 0.00 in - - ()
Sea Level Pressure  
Sea Level Pressure 29.79 in    
Wind  
Wind Speed 4 mph (West)    
Max Wind Speed 13 mph    
Max Gust Speed -    
Visibility 10 miles    
Events      
Averages and records for this station are not official NWS values.
T = Trace of Precipitation, MM = Missing Value Source: NWS Daily Summary

Daily Weather History Graph

Daily Weather History Graph

Search for Another Location

Airport or City:

Trip Planner

Search our weather history database for the weather conditions in past years. The results will help you decide how hot, cold, wet, or windy it might be!

Date:

Astronomy

Oct. 11, 2011 Rise Set
Actual Time 6:31 AM MST 6:01 PM MST
Civil Twilight 6:06 AM MST 6:25 PM MST
Nautical Twilight 5:37 AM MST 6:54 PM MST
Astronomical Twilight 5:08 AM MST 7:23 PM MST
Moon 5:37 PM MST (10/11) 6:10 AM MST (10/11)
Length of Visible Light 12h 19m
Length of Day
11h 30m
Full, 100% of the Moon is Illuminated
Oct 11
Full
Oct 11
Full
Oct 19
Last Quarter
Oct 26
New
Nov 2
First Quarter

Hourly Weather History & Observations

Time (MST) Temp. Dew Point Humidity Pressure Visibility Wind Dir Wind Speed Gust Speed Precip Events Conditions
12:55 AM 62.6 °F 35.1 °F 36% 29.79 in 10.0 mi Calm Calm - N/A   Clear
1:55 AM 62.4 °F 36.1 °F 38% 29.80 in 10.0 mi NNW 4.6 mph - N/A   Clear
2:55 AM 60.8 °F 35.8 °F 39% 29.80 in 10.0 mi North 4.6 mph - N/A   Clear
3:55 AM 58.3 °F 36.1 °F 44% 29.80 in 10.0 mi North 3.5 mph - N/A   Clear
4:55 AM 57.2 °F 36.7 °F 46% 29.81 in 10.0 mi NNE 5.8 mph - N/A   Clear
5:55 AM 57.0 °F 34.3 °F 42% 29.82 in 10.0 mi North 6.9 mph - N/A   Clear
6:55 AM 56.5 °F 36.5 °F 47% 29.84 in 10.0 mi North 8.1 mph - N/A   Clear
7:55 AM 64.4 °F 35.6 °F 34% 29.85 in 10.0 mi North 4.6 mph - N/A   Clear
8:55 AM 71.2 °F 37.4 °F 29% 29.86 in 10.0 mi Calm Calm - N/A   Clear
9:55 AM 73.8 °F 34.0 °F 23% 29.86 in 10.0 mi Calm Calm - N/A   Clear
10:55 AM 77.7 °F 35.2 °F 21% 29.85 in 10.0 mi SE 4.6 mph - N/A   Clear
11:55 AM 81.7 °F 34.7 °F 18% 29.83 in 10.0 mi Calm Calm - N/A   Clear
12:55 PM 84.4 °F 35.1 °F 17% 29.81 in 10.0 mi Calm Calm - N/A   Clear
1:29 PM 86.0 °F 33.8 °F 15% 29.78 in 10.0 mi Calm Calm - N/A   Light Drizzle
1:55 PM 86.9 °F 30.9 °F 13% 29.77 in 10.0 mi Calm Calm - 0.00 in   Clear
2:55 PM 88.9 °F 30.6 °F 12% 29.75 in 10.0 mi SW 10.4 mph - N/A   Clear
3:55 PM 88.9 °F 34.3 °F 14% 29.75 in 10.0 mi SSW 11.5 mph - N/A   Clear
4:29 PM 89.6 °F 30.2 °F 12% 29.74 in 10.0 mi SSW 11.5 mph - N/A   Clear
4:55 PM 88.9 °F 30.2 °F 12% 29.74 in 10.0 mi SSW 11.5 mph - 0.00 in   Clear
5:55 PM 86.4 °F 34.2 °F 15% 29.74 in 10.0 mi SSW 12.7 mph - N/A   Clear
6:55 PM 82.2 °F 36.5 °F 19% 29.75 in 10.0 mi SSW 5.8 mph - N/A   Clear
7:55 PM 79.5 °F 36.1 °F 21% 29.76 in 10.0 mi WSW 5.8 mph - N/A   Clear
8:55 PM 75.9 °F 35.4 °F 23% 29.78 in 10.0 mi WSW 4.6 mph - N/A   Clear
9:55 PM 73.8 °F 39.6 °F 29% 29.79 in 10.0 mi Calm Calm - N/A   Clear
10:55 PM 73.2 °F 37.2 °F 27% 29.79 in 10.0 mi West 3.5 mph - N/A   Clear
11:55 PM 72.3 °F 36.7 °F 27% 29.78 in 10.0 mi NNW 9.2 mph - N/A   Clear